Wind_Speed
2 2 2 2 2 2 1 1 1 2 2 2 2 2 2 1 1 1 2 2 3 3 4 4 4 4 4 4 4 4 4 4 4 4 4 4 4 4 4 4 5 5 5
2 2 3 2 2 2 1 1 2 2 1 2 2 2 2 2 2 2 3 3 4 5 5 5 5 6 6 5 6 5 4 4 5 5 5 5 6 6 6 6 6 6 6
2 2 2 2 2 2 2 2 2 2 2 2 3 3 3 3 3 3 4 4 5 6 6 6 7 7 7 7 7 6 5 6 6 6 7 7 7 7 7 7 7 7 7
2 1 1 2 2 3 3 2 3 3 3 4 4 4 4 4 5 5 5 6 6 7 7 7 8 8 8 8 8 8 7 7 8 8 8 8 8 8 8 8 8 8 8
1 1 1 2 2 3 3 3 4 4 4 5 5 5 6 6 6 7 7 8 8 8 9 9 9 10 10 10 10 10 9 10 10 10 10 9 9 10 10 10 9 10 10
2 2 2 2 3 4 4 5 5 5 5 6 6 7 7 7 7 8 8 9 8 9 10 10 10 10 11 12 12 12 12 12 12 12 12 12 11 11 11 11 11 11 11
3 4 4 4 5 5 6 7 7 7 7 7 7 8 8 8 8 8 9 9 9 10 10 10 11 11 12 12 12 13 13 14 14 14 14 14 14 13 13 12 12 12 12
5 5 6 6 6 6 7 8 8 8 8 8 8 8 8 9 9 9 11 11 11 12 12 13 13 13 13 13 14 15 15 15 15 16 16 16 16 16 15 14 14 14 13
6 6 6 7 8 8 8 9 8 8 9 10 10 10 10 11 11 11 12 13 14 14 15 15 15 15 15 15 15 16 16 16 16 17 17 18 17 17 17 17 16 16 15
8 8 9 9 9 9 10 10 9 10 11 11 12 12 12 13 13 14 14 15 15 16 16 17 17 17 17 17 17 17 17 18 18 18 18 19 19 19 19 19 18 18 18
8 9 10 10 10 10 10 11 11 12 12 12 13 14 14 14 15 15 16 17 17 18 18 18 19 19 18 18 18 19 19 19 19 20 20 20 20 20 20 20 20 20 20
10 11 11 12 12 12 12 12 13 14 14 14 15 15 16 16 17 17 18 19 19 19 19 19 19 19 19 20 20 20 20 20 20 21 21 22 22 22 22 22 22 22 22
12 12 13 13 14 14 14 14 15 16 16 16 16 17 17 18 18 19 19 20 20 20 21 21 21 21 22 22 23 23 23 22 22 23 23 23 23 23 24 24 24 24 24
12 13 14 15 15 16 16 17 17 17 18 19 18 19 19 19 20 20 20 21 21 22 22 22 22 23 23 24 24 24 24 24 24 24 25 24 24 24 25 25 26 25 25
13 14 14 15 16 17 17 18 18 18 19 19 19 20 20 20 21 22 22 22 22 22 22 23 23 24 24 25 25 25 25 25 25 26 26 26 26 26 26 26 26 26 27
16 16 16 17 18 19 19 20 20 20 20 20 20 21 21 22 23 23 24 24 23 23 23 23 24 24 24 25 25 25 25 25 26 26 26 26 26 26 26 26 26 27 27
17 18 18 19 19 20 20 20 21 21 21 22 22 22 23 23 24 25 25 24 24 24 24 24 25 25 25 25 25 25 25 26 26 25 25 25 26 26 26 26 27 28 27
19 20 20 20 21 21 21 21 22 22 22 22 23 24 25 25 26 26 25 25 25 26 25 24 25 25 24 25 25 25 26 26 26 26 27 27 26 26 26 26 27 27 27
20 21 22 22 22 23 23 23 23 24 24 25 26 26 27 27 26 26 26 26 26 26 26 25 25 25 25 26 26 26 26 26 26 27 27 28 28 28 28 27 27 27 28
23 23 24 24 24 24 24 24 25 26 26 27 28 27 28 28 28 28 28 28 27 27 27 26 26 26 27 27 27 27 27 27 27 27 27 27 28 29 29 28 28 27 27
25 26 26 26 26 26 26 27 27 27 28 29 30 30 30 30 29 30 30 29 29 28 28 28 27 27 28 28 28 28 28 28 28 28 28 28 29 29 29 29 28 28 28
28 28 28 27 28 28 29 29 29 29 30 30 30 30 30 30 30 30 30 30 30 30 29 29 29 29 29 29 29 29 29 29 29 29 29 29 30 29 29 29 29 29 29
30 30 30 29 30 30 31 31 31 31 31 31 31 31 31 31 31 31 31 31 30 30 30 30 30 30 30 31 31 31 30 30 30 31 31 31 31 31 30 30 30 29 29
31 31 31 31 32 32 32 32 32 33 32 32 32 33 33 32 32 32 32 32 32 31 31 31 31 31 31 32 32 32 32 32 32 32 31 31 31 31 31 31 30 29 30
32 32 32 32 33 33 33 33 33 33 33 33 33 34 33 33 32 32 32 32 33 32 32 33 32 32 32 33 33 33 33 33 33 33 33 32 32 32 32 31 30 30 30
33 32 33 34 34 34 34 34 34 33 33 33 34 33 33 33 33 34 33 33 33 32 33 33 33 33 33 33 34 34 34 34 34 33 33 33 32 32 31 31 31 30 30
Wind_Direction
63 53 45 13 355 347 349 14 13 6 10 22 26 26 33 17 334 316 317 320 318 313 307 305 302 302 298 294 296 299 291 281 280 282 286 284 283 279 278 279 279 279 283
55 46 40 23 5 349 339 338 325 330 332 342 344 346 356 351 323 307 309 307 305 305 304 300 298 300 300 290 289 294 287 286 284 280 278 277 276 275 276 277 277 277 280
49 42 37 15 350 331 324 310 310 319 314 308 311 315 320 320 307 302 302 300 301 303 300 290 292 295 294 292 288 289 286 284 282 283 283 280 277 274 273 276 273 272 273
45 37 20 357 339 326 327 311 301 301 301 298 295 298 302 303 300 294 296 295 295 296 296 292 291 294 293 288 285 286 287 280 278 281 284 283 281 276 275 276 273 271 271
52 12 348 332 327 321 310 307 295 292 294 297 293 289 293 298 292 288 287 289 292 294 293 291 291 289 290 288 286 283 284 281 278 276 277 278 276 277 275 275 274 272 272
341 336 343 329 326 325 311 310 300 292 290 289 289 288 287 287 285 284 287 289 296 297 296 293 292 289 285 286 289 286 284 282 281 279 275 272 273 275 276 276 273 273 272
314 315 319 318 314 315 314 312 309 296 291 288 285 285 282 278 277 283 288 290 296 300 304 300 294 291 289 284 288 289 287 283 282 279 274 270 269 270 274 274 274 274 274
299 303 308 308 308 308 311 304 302 297 291 288 287 288 288 280 274 277 281 282 287 292 294 296 295 293 292 289 287 288 288 283 279 277 277 272 272 271 270 272 271 273 274
296 297 298 302 302 301 304 303 296 293 291 288 283 282 282 283 278 279 280 280 282 286 287 288 289 290 288 288 288 289 285 284 283 280 278 277 272 271 271 269 268 268 270
293 294 293 296 296 295 297 298 297 291 290 289 287 284 281 277 276 282 284 282 284 286 287 287 286 287 288 288 288 288 286 284 282 282 280 279 276 272 273 269 266 268 269
292 292 291 295 294 291 292 292 296 295 292 291 289 287 287 283 279 279 281 283 284 285 286 287 287 286 286 286 288 289 286 285 283 281 280 280 276 273 273 270 268 269 270
295 295 292 293 293 289 289 289 292 293 293 291 290 288 285 284 283 281 282 283 283 284 287 286 285 286 285 286 285 288 286 284 282 281 280 278 275 272 272 271 269 270 270
296 296 296 295 294 293 291 290 292 290 291 291 289 288 287 286 285 286 286 286 286 285 286 287 284 283 283 285 284 284 284 283 281 280 279 276 275 274 273 271 268 270 269
298 299 300 296 297 296 295 294 292 290 291 291 289 288 289 289 291 289 287 287 287 286 285 285 284 284 285 285 286 284 284 282 280 279 278 276 275 274 274 271 268 267 266
300 300 300 299 298 299 299 295 294 292 292 290 288 287 290 292 293 293 292 290 288 287 285 285 286 285 284 286 285 284 285 284 282 280 278 276 274 273 272 269 268 267 267
296 298 299 300 298 298 299 297 295 295 292 289 289 290 292 293 293 292 292 291 288 285 285 284 286 287 288 288 286 285 286 287 285 283 281 278 276 274 272 269 269 270 270
294 295 297 299 299 298 298 297 296 294 293 290 288 290 291 292 292 291 290 290 288 287 285 284 285 286 288 288 288 288 287 288 287 285 282 281 278 276 274 272 271 270 270
293 294 295 296 297 296 296 296 296 295 294 292 291 291 292 292 291 291 291 291 290 289 288 285 284 285 285 286 287 290 289 289 287 285 283 281 280 278 276 274 273 272 271
291 294 295 294 295 296 295 294 293 294 294 294 293 293 293 293 291 291 292 291 291 291 289 287 286 286 286 287 286 286 288 289 288 286 284 282 280 278 277 276 275 274 273
292 293 293 293 294 296 296 295 294 293 293 293 293 292 292 292 291 291 290 289 289 289 289 288 287 287 287 287 286 286 287 288 286 285 284 282 279 277 276 275 275 274 274
290 291 291 291 294 295 296 296 295 296 296 296 294 294 294 292 290 289 289 288 287 287 288 287 287 287 288 287 287 286 287 288 287 285 285 283 280 277 274 274 273 273 274
288 288 288 289 291 293 294 294 295 296 297 296 295 294 293 293 292 290 288 287 286 286 286 285 285 287 288 286 286 287 287 286 285 285 284 284 282 279 275 274 273 273 273
288 287 288 289 290 292 293 293 293 293 293 293 292 292 291 291 290 289 287 286 286 286 285 284 284 285 285 285 284 285 285 285 285 285 285 284 283 281 277 276 275 275 274
288 288 290 290 291 291 292 291 290 292 291 291 290 289 289 289 287 287 285 285 285 285 284 283 284 285 284 283 283 284 284 283 283 283 283 283 282 280 279 277 277 276 275
287 288 289 289 290 291 291 292 293 292 292 290 289 288 288 287 286 286 284 284 283 284 284 284 285 285 284 284 284 283 283 282 282 281 281 281 279 279 279 278 277 277 277
286 287 288 288 289 291 293 294 294 294 293 292 291 290 288 286 286 285 283 282 283 283 283 284 283 283 283 283 284 284 284 283 282 281 280 280 280 277 277 276 277 277 275
Height
5898 5898 5898 5898 5898 5898 5898 5898 5899 5899 5899 5899 5898 5898 5898 5898 5898 5898 5898 5898 5898 5897 5897 5896 5896 5895 5895 5895 5894 5894 5893 5893 5893 5893 5893 5893 5893 5893 5893 5893 5893 5893 5892
5898 5898 5898 5898 5898 5898 5898 5898 5898 5898 5899 5898 5898 5898 5898 5898 5897 5897 5897 5897 5897 5897 5896 5895 5895 5895 5894 5894 5893 5893 5892 5892 5892 5892 5892 5891 5892 5891 5891 5891 5891 5891 5891
5898 5898 5898 5898 5898 5898 5898 5898 5898 5898 5898 5898 5898 5897 5897 5897 5897 5897 5896 5896 5896 5895 5895 5894 5894 5894 5893 5893 5892 5891 5891 5891 5891 5890 5890 5890 5890 5890 5890 5890 5890 5890 5889
5898 5898 5898 5898 5898 5898 5897 5897 5897 5897 5897 5897 5897 5896 5896 5896 5896 5896 5895 5895 5895 5894 5894 5893 5893 5892 5892 5891 5890 5890 5890 5889 5889 5889 5889 5888 5888 5888 5888 5888 5888 5888 5887
5898 5898 5898 5898 5897 5897 5897 5897 5896 5896 5896 5896 5896 5895 5895 5895 5895 5894 5894 5893 5893 5892 5892 5891 5891 5891 5890 5889 5889 5888 5887 5887 5887 5887 5886 5886 5886 5886 5886 5886 5885 5885 5885
5898 5898 5898 5897 5897 5896 5896 5896 5895 5895 5895 5895 5894 5894 5893 5893 5893 5892 5892 5892 5891 5890 5890 5889 5889 5888 5888 5887 5887 5886 5885 5885 5885 5884 5884 5884 5883 5883 5883 5883 5883 5882 5882
5897 5897 5897 5896 5896 5896 5895 5895 5894 5894 5893 5893 5893 5892 5891 5891 5891 5891 5890 5890 5889 5889 5888 5887 5887 5886 5885 5885 5884 5883 5882 5882 5882 5881 5881 5881 5880 5880 5880 5880 5880 5879 5879
5896 5896 5896 5895 5895 5894 5894 5893 5893 5892 5892 5891 5891 5890 5890 5890 5889 5889 5889 5888 5887 5886 5886 5885 5884 5883 5882 5881 5881 5880 5879 5879 5878 5878 5877 5877 5877 5877 5877 5877 5877 5876 5876
5895 5895 5894 5894 5893 5893 5892 5891 5891 5890 5890 5889 5888 5888 5888 5887 5887 5887 5886 5885 5885 5884 5883 5881 5881 5880 5879 5878 5877 5876 5876 5875 5874 5874 5873 5873 5873 5873 5873 5873 5873 5873 5873
5893 5893 5893 5892 5891 5890 5890 5889 5888 5888 5887 5887 5886 5885 5885 5885 5884 5884 5883 5882 5881 5880 5879 5878 5877 5876 5875 5874 5874 5873 5872 5871 5870 5870 5869 5868 5868 5868 5868 5868 5868 5868 5868
5891 5891 5890 5889 5889 5888 5887 5887 5886 5885 5884 5884 5883 5882 5882 5881 5881 5880 5879 5878 5878 5877 5875 5874 5873 5872 5871 5870 5870 5869 5868 5867 5866 5865 5864 5863 5863 5863 5863 5863 5864 5864 5864
5888 5888 5887 5886 5886 5885 5884 5884 5883 5882 5881 5881 5880 5879 5878 5877 5877 5876 5875 5874 5873 5872 5871 5870 5869 5867 5866 5866 5865 5864 5863 5862 5861 5860 5859 5858 5858 5858 5858 5858 5858 5858 5858
5886 5885 5884 5883 5883 5882 5881 5881 5880 5879 5878 5877 5876 5875 5874 5873 5872 5872 5871 5870 5868 5867 5866 5865 5864 5863 5861 5860 5859 5858 5857 5856 5855 5854 5853 5853 5852 5852 5852 5852 5852 5852 5852
5884 5883 5882 5880 5879 5879 5878 5877 5876 5875 5874 5873 5872 5871 5869 5868 5867 5866 5866 5864 5863 5862 5861 5860 5859 5857 5856 5855 5854 5852 5851 5850 5849 5848 5847 5846 5846 5845 5845 5845 5845 5846 5846
5881 5880 5879 5877 5876 5875 5874 5873 5872 5871 5870 5868 5867 5866 5864 5863 5862 5861 5860 5859 5858 5857 5856 5855 5853 5852 5851 5849 5848 5847 5845 5844 5843 5841 5841 5840 5839 5838 5838 5838 5838 5839 5839
5877 5876 5875 5874 5872 5871 5869 5868 5867 5866 5865 5863 5862 5860 5859 5858 5856 5855 5854 5852 5851 5851 5850 5849 5847 5846 5845 5843 5842 5840 5839 5837 5836 5835 5833 5833 5832 5832 5831 5831 5831 5831 5831
5873 5872 5870 5869 5867 5866 5864 5863 5862 5860 5859 5858 5856 5855 5853 5852 5851 5849 5847 5846 5845 5844 5843 5842 5841 5839 5838 5837 5835 5833 5832 5831 5829 5828 5827 5826 5825 5825 5824 5824 5824 5824 5824
5868 5866 5865 5864 5863 5861 5859 5858 5857 5855 5853 5852 5851 5849 5847 5846 5845 5843 5841 5840 5839 5838 5837 5836 5834 5833 5832 5830 5829 5827 5825 5824 5823 5821 5820 5819 5818 5817 5817 5817 5817 5816 5816
5862 5861 5860 5858 5857 5855 5854 5852 5851 5849 5848 5846 5844 5843 5841 5839 5838 5836 5835 5834 5832 5831 5830 5829 5828 5826 5825 5823 5822 5821 5819 5817 5816 5814 5813 5812 5811 5810 5810 5809 5809 5809 5809
5857 5856 5854 5853 5851 5849 5847 5846 5844 5842 5841 5840 5838 5836 5834 5832 5830 5829 5828 5826 5825 5824 5822 5821 5820 5819 5818 5816 5815 5813 5812 5810 5809 5807 5805 5804 5803 5802 5802 5801 5801 5801 5801
5851 5849 5848 5846 5844 5843 5841 5839 5837 5836 5834 5832 5830 5828 5826 5825 5823 5821 5820 5819 5817 5816 5815 5814 5813 5812 5810 5808 5807 5806 5804 5803 5801 5800 5799 5797 5796 5795 5794 5793 5793 5793 5792
5845 5843 5841 5839 5837 5836 5834 5832 5830 5828 5826 5824 5822 5820 5818 5817 5815 5813 5812 5810 5809 5808 5807 5806 5805 5803 5802 5801 5799 5797 5796 5795 5793 5792 5791 5789 5788 5786 5785 5785 5785 5784 5784
5837 5835 5833 5831 5830 5828 5826 5824 5821 5820 5818 5816 5814 5812 5810 5808 5806 5805 5803 5802 5800 5799 5798 5797 5796 5795 5793 5792 5791 5789 5788 5786 5785 5783 5782 5781 5780 5779 5778 5777 5776 5776 5775
5829 5827 5825 5823 5821 5820 5818 5815 5813 5811 5809 5807 5805 5803 5802 5799 5798 5796 5794 5793 5791 5790 5789 5788 5787 5785 5784 5782 5781 5780 5778 5777 5776 5775 5773 5772 5771 5770 5769 5768 5767 5767 5766
5821 5819 5817 5814 5812 5810 5808 5806 5804 5801 5799 5797 5795 5794 5792 5790 5788 5786 5785 5783 5782 5781 5779 5778 5777 5775 5774 5772 5771 5770 5769 5768 5767 5766 5764 5763 5762 5761 5760 5759 5758 5758 5757
5811 5809 5807 5805 5803 5801 5799 5796 5794 5791 5790 5788 5786 5784 5782 5780 5778 5776 5775 5773 5772 5771 5769 5768 5767 5765 5764 5762 5761 5760 5758 5757 5756 5756 5754 5753 5752 5751 5751 5750 5749 5749 5748